#timestamp,LO_Frequency,Hit 
1502413215.9,286047007.6,P
1502413235.7,286047006.0,N
1502413255.5,286047003.3,N
1502413275.4,286047003.2,N
1502413295.2,286047007.2,P
1502413315.1,286046998.5,N
1502413335.6,286046998.6,N
1502413355.4,286047000.7,N
1502413375.2,286046998.9,N
1502413395.1,286046996.7,N
1502413396.0,286046996.7,N
1502413415.8,286046999.6,N
1502413435.6,286046997.4,N
1502413455.5,286046995.0,N
1502413475.3,286046993.9,N
1502413495.1,286046997.8,N
1502413515.9,286046996.4,N
1502413535.7,286046995.4,N
1502413555.5,286046995.9,N
1502413575.3,286046996.1,N
1502413595.2,286046997.5,N
1502413615.0,286046995.3,N
1502413615.9,286046995.3,N
1502413635.7,286046997.1,N
1502413655.6,286046998.2,N
1502413675.4,286046999.4,N
1502413695.2,286046995.9,N
1502413715.1,286046997.1,N
1502413716.0,286046997.1,N
1502413735.8,286046997.4,N
1502413755.6,286046997.0,N
1502413775.5,286046997.1,N
1502413795.6,286046997.5,N
1502413815.6,286046994.9,N
1502413835.5,286046999.0,N
1502413855.3,286047000.6,N
1502413875.1,286046998.1,N
1502413895.1,286047002.8,N
1502413896.0,286047002.8,N
1502413915.8,286047001.0,N
1502413935.7,286047002.4,N
1502413955.5,286047003.9,N
1502413975.3,286047001.8,N
1502413995.2,286047002.2,N
1502414015.9,286047002.7,N
1502414035.7,286047000.4,N
1502414055.5,286046996.5,N
1502414075.4,286046996.9,N
1502414095.2,286046996.7,N
1502414115.0,286046997.7,N
1502414115.9,286046997.7,N
1502414135.8,286046997.8,N
1502414155.6,286046997.4,N
1502414175.4,286046994.9,N
1502414195.3,286046999.3,N
1502414215.1,286046998.4,N
1502414235.8,286046997.2,N
1502414255.7,286046997.3,N
1502414275.5,286046999.1,N
1502414295.3,286046998.5,N
1502414315.2,286047000.7,N
1502414335.9,286046998.5,N
1502414355.7,286046999.7,N
1502414375.6,286046999.7,N
1502414395.4,286047000.3,N
1502414415.2,286046999.4,N
1502414435.0,286046998.4,N
1502414436.0,286046998.4,N
1502414455.8,286047000.5,N
1502414475.6,286047002.7,N
1502414495.4,286046997.1,N
1502414515.3,286046995.5,N
1502414535.1,286046995.1,N
1502414555.8,286046997.2,N
1502414575.7,286046998.7,N
1502414595.5,286047000.9,N
1502414615.3,286047001.2,N
1502414635.2,286046998.6,N
1502414655.9,286047007.1,P
1502414675.7,286047006.9,N
1502414695.6,286047007.1,N
1502414715.4,286047004.8,N
1502414735.2,286047003.4,N
1502414755.1,286047004.4,N
1502414756.0,286047004.4,N
1502414775.8,286047003.2,N
1502414795.6,286047004.3,N
1502414815.5,286047005.4,N
1502414835.3,286047003.0,N
1502414855.1,286047003.0,N
1502414875.9,286047003.1,N
1502414895.7,286047004.2,N
1502414915.5,286047005.1,N
1502414935.4,286047005.7,N
1502414955.2,286047005.5,N
1502414975.0,286047008.7,P
1502414975.9,286047008.7,P
1502414995.8,286047004.2,N
1502415015.6,286047004.4,N
1502415035.4,286047002.7,N
1502415055.5,286046999.7,N
1502415075.4,286047002.6,N
1502415095.2,286047000.6,N
1502415115.0,286047002.6,N
1502415115.9,286047002.6,N
1502415135.8,286047003.6,N
1502415155.6,286047001.3,N
1502415175.4,286047003.5,N
1502415195.2,286047006.8,N
1502415215.1,286047006.1,N
1502415216.0,286047006.1,N
1502415235.8,286047007.9,P
1502415255.7,286047005.4,N
1502415275.5,286047005.3,P
1502415295.3,286047001.8,N
1502415315.2,286046998.1,N
1502415335.9,286046998.7,N
1502415355.7,286046998.2,N
1502415375.5,286046996.7,N
1502415395.4,286047000.8,N
1502415415.2,286047002.3,N
1502415435.0,286047001.9,N
1502415435.9,286047001.9,N
1502415455.8,286047001.5,N
1502415475.6,286047002.1,N
1502415495.4,286047000.8,N
1502415515.3,286047000.6,N
1502415535.1,286046998.5,N
1502415536.0,286046998.5,N
1502415555.8,286046998.6,N
1502415575.7,286046996.6,N
1502415595.5,286046999.2,N
1502415615.3,286046999.1,N
1502415635.2,286047000.5,N
1502415655.9,286046999.3,N
1502415675.7,286046998.2,N
1502415695.5,286046998.8,N
1502415715.4,286047001.1,N
1502415735.2,286047000.2,N
1502415755.0,286047001.2,N
1502415755.9,286047001.2,N
1502415775.8,286046994.9,N
1502415795.6,286046999.5,N
1502415815.4,286046996.8,N
1502415835.3,286046997.9,N
1502415855.1,286046998.0,N
1502415856.0,286046998.0,N
1502415875.8,286046995.4,N
1502415895.7,286046995.4,N
1502415915.5,286046994.9,N
1502415935.3,286046995.2,N
1502415955.2,286046995.6,N
1502415975.9,286046995.4,N
1502415995.7,286046995.8,N
1502416015.6,286046995.0,N
1502416035.4,286046995.0,N
1502416055.2,286046997.4,N
1502416075.0,286046995.3,N
1502416076.0,286046995.3,N
1502416095.8,286046996.3,N
1502416115.6,286046995.1,N
1502416135.5,286046997.6,N
1502416155.3,286046997.3,N
1502416175.1,286046997.3,N
1502416195.8,286046997.6,N
1502416215.7,286046997.8,N
1502416235.5,286046999.2,N
1502416255.3,286046995.7,N
1502416275.2,286046994.4,P
1502416295.0,286047001.1,N
1502416295.9,286047001.1,N
1502416315.8,286047000.8,N
1502416335.6,286046999.3,N
1502416355.4,286046998.2,N
1502416375.2,286046999.0,N
1502416395.1,286046998.1,N
1502416396.0,286046998.1,N
1502416415.8,286047000.1,N
1502416435.6,286047000.1,N
1502416455.5,286046999.1,N
1502416475.3,286046995.0,N
1502416495.1,286046995.1,N
1502416515.9,286046995.4,N
1502416535.7,286046997.2,N
1502416555.5,286046998.8,N
1502416575.4,286046998.2,N
1502416595.2,286047000.9,N
1502416615.0,286047001.1,N
1502416615.9,286047001.1,N
1502416635.8,286046999.5,N
1502416655.6,286047002.5,N
1502416675.4,286047000.1,N
1502416695.2,286047003.3,N
1502416715.1,286047005.5,N
1502416716.0,286047005.5,N
1502416735.8,286047007.0,N
1502416755.6,286047004.2,N
1502416775.5,286046999.9,N
1502416795.3,286047005.4,N
